User: anonymous
Location: Albany
(35.0000°S, 118.0000°E)
Time: 10:29:22
(UTC-04:00)
Language:

Cosmos 1346 Rocket - Orbit

View from above orbital plane
View from above orbital plane
View from above satellite
View from above satellite

Ground track
Ground track

The orbit data is extracted from the following two-line orbital elements,

1 13121U 82027B   14274.81283026  .00003151  00000-0  21603-3 0  5121
2 13121 081.1707 174.1373 0028393 192.0437 168.0111 15.05443565767939
Epoch (UTC): 01 October 2014 19:30:28
Eccentricity: 0.0028393
inclination: 81.1707°
perigee height: 530 km
apogee height: 570 km
right ascension of ascending node: 174.1373°
argument of perigee: 192.0437°
revolutions per day: 15.05443565
mean anomaly at epoch: 168.0111°
orbit number at epoch: 76793

The dashed part of the orbit path shows where the satellite is in the earth's shadow,  

DLR